Date,TemperatureHighF,TemperatureAvgF,TemperatureLowF,DewpointHighF,DewpointAvgF,DewpointLowF,HumidityHigh,HumidityAvg,HumidityLow,PressureMaxIn,PressureMinIn,WindSpeedMaxMPH,WindSpeedAvgMPH,GustSpeedMaxMPH,PrecipitationSumIn
2013-1-1,26,20,15,24,20,15,100,99,88,29.85,29.21,0,-999,0,0.00
2013-1-2,30,28,25,26,23,20,89,82,71,29.64,29.36,0,-999,0,0.00
2013-1-3,30,21,6,24,17,5,97,83,69,29.72,29.64,0,-999,0,0.00
2013-1-4,9,2,-6,8,1,-7,99,94,88,29.99,29.71,0,-999,0,0.00
2013-1-5,15,9,0,14,8,-1,100,96,92,29.95,29.48,0,-999,0,0.00
2013-1-6,10,0,-8,9,-1,-9,99,95,87,29.55,29.29,0,-999,0,0.00
2013-1-7,5,-5,-12,4,-6,-13,97,93,91,29.57,29.29,0,-999,0,0.00
2013-1-8,1,-9,-16,-1,-11,-100,94,91,89,30.06,29.56,0,-999,0,0.00
2013-1-9,2,-5,-16,1,-6,-18,99,94,89,30.26,30.06,0,-999,0,0.00
2013-1-10,5,-1,-13,4,-2,-15,98,95,90,30.32,30.11,0,-999,0,0.00
2013-1-11,8,2,-3,7,1,-5,99,96,93,30.32,30.16,0,-999,0,0.00
2013-1-12,15,7,-6,15,7,-7,100,98,93,30.32,30.03,0,-999,0,0.00
2013-1-13,38,29,10,36,28,10,100,98,92,30.03,29.65,0,-999,0,0.00
2013-1-14,40,37,28,36,33,27,99,84,62,29.79,29.63,0,-999,0,0.00
2013-1-15,30,14,0,29,14,0,100,98,91,30.28,29.79,0,-999,0,0.00
2013-1-16,10,2,-7,9,1,-8,99,95,91,30.26,29.69,0,-999,0,0.00
2013-1-17,17,7,-7,17,7,-8,100,96,93,29.90,29.54,0,-999,0,0.00
2013-1-18,7,-2,-18,6,-3,-20,98,93,88,30.39,29.91,0,-999,0,0.00
2013-1-19,5,1,-4,2,-1,-5,95,91,81,30.43,30.23,0,-999,0,0.00
2013-1-20,9,5,-1,9,4,-2,98,94,89,30.24,30.03,0,-999,0,0.00
2013-1-21,12,9,6,12,9,5,100,98,92,30.11,29.95,0,-999,0,0.00
2013-1-22,13,10,8,12,10,7,100,97,91,29.96,29.62,0,-999,0,0.00
2013-1-23,15,9,-8,13,8,-9,100,97,91,29.62,29.49,0,-999,0,0.00
2013-1-24,16,4,-4,12,4,-5,100,95,80,29.60,29.41,0,-999,0,0.00
2013-1-25,15,7,-5,15,6,-8,100,95,88,29.68,29.34,0,-999,0,0.00
2013-1-26,-5,-25,-41,-8,-28,-44,90,85,77,30.04,29.68,0,-999,0,0.00
2013-1-27,-19,-38,-47,-22,-42,-50,89,81,67,30.45,30.03,0,-999,0,0.00
2013-1-28,-17,-30,-45,-19,-34,-48,89,83,72,30.57,30.24,0,-999,0,0.00
2013-1-29,-7,-12,-17,-10,-15,-20,90,86,80,30.25,30.06,0,-999,0,0.00
2013-1-30,0,-6,-14,-2,-8,-16,93,89,83,30.16,29.93,0,-999,0,0.00
2013-1-31,15,6,-4,14,5,-5,98,94,86,30.08,29.88,0,-999,0,0.00
2013-2-1,17,13,1,17,12,1,100,99,92,30.15,29.86,0,-999,0,0.00
2013-2-2,17,12,6,17,12,6,100,99,97,29.87,29.60,0,-999,0,0.00
2013-2-3,20,11,3,20,11,2,100,99,94,29.61,29.39,0,-999,0,0.00
2013-2-4,27,5,-5,27,4,-6,100,96,91,29.81,29.56,0,-999,0,0.00
2013-2-5,14,-3,-11,12,-6,-100,98,92,86,29.80,29.65,0,-999,0,0.00
2013-2-6,12,2,-13,10,2,-16,99,95,87,29.73,29.60,0,-999,0,0.00
2013-2-7,9,-2,-17,7,-3,-19,98,94,89,29.75,29.44,0,-999,0,0.00
2013-2-8,17,7,1,17,6,1,100,96,92,29.91,29.47,0,-999,0,0.00
2013-2-9,32,23,6,32,22,4,100,99,93,29.91,29.14,0,-999,0,0.00
2013-2-10,36,31,23,31,27,21,100,87,72,29.44,29.07,0,-999,0,0.00
2013-2-11,28,22,7,24,20,4,100,93,78,29.77,29.44,0,-999,0,0.00
2013-2-12,22,4,-7,16,2,-8,98,92,73,29.94,29.77,0,-999,0,0.00
2013-2-13,31,11,-10,21,6,-12,97,81,57,29.99,29.83,0,-999,0,0.00
2013-2-14,25,14,2,19,12,1,98,90,70,29.83,29.35,0,-999,0,0.00
2013-2-15,23,15,0,22,15,-1,100,98,89,29.76,29.51,0,-999,0,0.00
2013-2-16,24,16,5,20,14,4,100,94,66,29.96,29.76,0,-999,0,0.00
2013-2-17,19,12,4,16,11,2,100,96,85,29.88,29.64,0,-999,0,0.00
2013-2-18,16,9,-3,16,8,-4,100,94,85,29.97,29.68,0,-999,0,0.00
2013-2-19,7,-6,-22,1,-9,-24,95,89,77,29.98,29.50,0,-999,0,0.00
2013-2-20,12,4,-8,9,2,-10,96,91,79,29.50,29.25,0,-999,0,0.00
2013-2-21,13,-3,-17,9,-6,-20,96,90,79,29.39,29.24,0,-999,0,0.00
2013-2-22,13,1,-16,10,-1,-18,97,90,79,29.49,29.24,0,-999,0,0.00
2013-2-23,15,5,-9,12,3,-10,99,91,77,29.47,29.30,0,-999,0,0.00
2013-2-24,21,-4,-19,14,-7,-22,95,88,73,29.81,29.44,0,-999,0,0.00
2013-2-25,24,-2,-19,14,-5,-22,94,85,61,29.92,29.80,0,-999,0,0.00
2013-2-26,24,2,-13,12,-2,-15,94,84,56,29.80,29.52,0,-999,0,0.00
2013-2-27,25,6,-10,10,2,-12,98,82,52,29.53,29.45,0,-999,0,0.00
2013-2-28,22,9,-7,15,6,-9,95,86,67,29.54,29.35,0,-999,0,0.00
2013-3-1,30,11,-4,22,9,-5,100,92,71,30.00,29.41,0,-999,0,0.00
2013-3-2,32,5,-11,19,1,-13,99,86,59,30.23,29.99,0,-999,0,0.00
2013-3-3,23,0,-18,14,-4,-20,99,85,66,30.61,30.22,0,-999,0,0.00
2013-3-4,28,2,-17,16,-3,-100,95,82,55,30.70,30.47,0,-999,0,0.00
2013-3-5,29,8,-6,15,3,-9,94,81,54,30.47,30.08,0,-999,0,0.00
2013-3-6,29,3,-16,14,-3,-100,96,81,52,30.10,30.00,0,-999,0,0.00
2013-3-7,31,10,-11,22,5,-13,92,81,62,30.04,29.68,0,-999,0,0.00
2013-3-8,42,28,11,28,22,10,100,80,52,29.78,29.63,0,-999,0,0.00
2013-3-9,41,28,12,22,17,9,100,67,37,30.04,29.75,0,-999,0,0.00
2013-3-10,32,16,-5,17,9,-6,96,76,52,30.23,30.04,0,-999,0,0.00
2013-3-11,34,17,1,15,8,0,100,72,39,30.40,30.21,0,-999,0,0.00
2013-3-12,24,13,3,4,-3,-8,78,50,26,30.36,30.17,0,-999,0,0.00
2013-3-13,17,5,-8,-8,-10,-14,75,52,30,30.18,29.97,0,-999,0,0.00
2013-3-14,18,0,-15,1,-8,-19,89,71,42,30.12,30.00,0,-999,0,0.00
2013-3-15,17,-5,-26,-2,-14,-29,93,67,35,30.10,29.91,0,-999,0,0.00
2013-3-16,20,-3,-23,0,-12,-26,93,67,39,30.20,30.01,0,-999,0,0.00
2013-3-17,26,-2,-25,3,-12,-28,92,66,29,30.25,30.10,0,-999,0,0.00
2013-3-18,22,-2,-23,3,-11,-26,92,69,39,30.10,29.92,0,-999,0,0.00
2013-3-19,20,-1,-19,-2,-12,-22,95,65,32,30.04,29.92,0,-999,0,0.00
2013-3-20,17,-6,-27,-7,-16,-30,95,65,31,30.02,29.93,0,-999,0,0.00
2013-3-21,18,-5,-30,-3,-16,-34,87,61,33,30.29,30.02,0,-999,0,0.00
2013-3-22,30,16,-3,18,6,-8,79,65,53,30.18,29.79,0,-999,0,0.00
2013-3-23,31,25,18,30,23,18,100,90,79,29.85,29.64,0,-999,0,0.00
2013-3-24,27,20,15,24,19,15,100,96,81,29.85,29.51,0,-999,0,0.00
2013-3-25,37,22,9,29,16,2,100,79,47,29.51,29.24,0,-999,0,0.00
2013-3-26,24,8,-11,8,0,-13,100,71,39,30.09,29.49,0,-999,0,0.00
2013-3-27,23,1,-24,4,-8,-26,95,70,40,30.30,30.08,0,-999,0,0.00
2013-3-28,31,12,-6,18,2,-10,84,64,41,30.26,30.02,0,-999,0,0.00
2013-3-29,35,25,10,25,18,4,94,74,58,30.03,29.91,0,-999,0,0.00
2013-3-30,40,29,20,28,23,-100,100,83,57,30.22,29.94,0,-999,0,0.00
2013-3-31,41,24,7,31,19,7,100,85,50,30.27,30.07,0,-999,0,0.00
2013-4-1,39,27,14,21,18,12,100,72,43,30.07,29.86,0,-999,0,0.00
2013-4-2,39,20,-3,19,10,-4,100,70,37,30.18,29.97,0,-999,0,0.00
2013-4-3,39,20,-1,19,10,-2,93,68,39,30.29,30.17,0,-999,0,0.00
2013-4-4,29,18,0,14,1,-5,88,51,29,30.25,29.89,0,-999,0,0.00
2013-4-5,26,8,-13,5,-5,-16,90,58,32,29.89,29.58,0,-999,0,0.00
2013-4-6,34,10,-19,15,-2,-22,93,62,36,29.59,29.44,0,-999,0,0.00
2013-4-7,38,25,11,24,12,2,80,58,44,29.67,29.42,0,-999,0,0.00
2013-4-8,29,19,10,26,13,0,100,80,55,29.69,29.14,0,-999,0,0.00
2013-4-9,29,21,7,22,18,2,100,88,62,29.37,28.81,0,-999,0,0.00
2013-4-10,26,9,-14,3,-4,-16,96,63,29,29.87,29.37,0,-999,0,0.00
2013-4-11,25,5,-21,6,-5,-24,96,66,38,30.07,29.86,0,-999,0,0.00
2013-4-12,26,8,-12,2,-4,-14,90,60,35,30.16,30.04,0,-999,0,0.00
2013-4-13,29,12,-14,3,-3,-16,96,56,30,30.44,30.15,0,-999,0,0.00
2013-4-14,33,13,-10,8,-3,-13,86,55,26,30.53,30.44,0,-999,0,0.00
2013-4-15,31,13,-12,16,1,-16,90,62,34,30.48,30.31,0,-999,0,0.00
2013-4-16,28,20,14,23,16,12,100,85,60,30.31,30.04,0,-999,0,0.00
2013-4-17,33,22,13,24,17,5,100,80,50,30.18,29.98,0,-999,0,0.00
2013-4-18,35,17,-8,11,4,-9,100,64,34,30.25,30.18,0,-999,0,0.00
2013-4-19,38,18,-9,12,4,-11,98,61,32,30.41,30.24,0,-999,0,0.00
2013-4-20,43,20,-7,16,5,-9,97,60,28,30.47,30.39,0,-999,0,0.00
2013-4-21,44,23,-5,25,9,-7,95,59,25,30.46,30.34,0,-999,0,0.00
2013-4-22,47,34,24,29,22,16,99,66,34,30.50,30.36,0,-999,0,0.00
2013-4-23,39,29,17,36,26,16,100,87,59,30.51,30.27,0,-999,0,0.00
2013-4-24,39,33,29,35,32,24,100,96,74,30.27,29.78,0,-999,0,0.00
2013-4-25,36,28,16,24,12,3,88,55,32,29.86,29.72,0,-999,0,0.00
2013-4-26,33,21,4,11,5,1,88,51,29,29.86,29.49,0,-999,0,0.00
2013-4-27,36,22,6,14,8,3,94,57,34,29.94,29.54,0,-999,0,0.00
2013-4-28,33,21,2,12,1,-5,85,45,24,30.16,29.94,0,-999,0,0.00
2013-4-29,37,21,-2,20,8,-5,94,60,32,30.23,30.09,0,-999,0,0.00
2013-4-30,36,26,9,25,20,8,99,77,55,30.10,29.82,0,-999,0,0.00
2013-5-1,41,29,10,29,22,10,100,77,47,29.82,29.53,0,-999,0,0.00
2013-5-2,46,36,30,34,31,27,100,81,48,29.87,29.58,0,-999,0,0.00
2013-5-3,48,40,33,34,32,30,97,75,55,29.88,29.77,0,-999,0,0.00
2013-5-4,38,34,30,37,33,29,100,99,89,29.81,29.64,0,-999,0,0.00
2013-5-5,41,32,27,32,29,27,100,88,64,30.08,29.81,0,-999,0,0.00
2013-5-6,43,34,27,32,28,25,100,80,51,30.20,30.07,0,-999,0,0.00
2013-5-7,44,35,25,31,28,25,100,79,47,30.25,30.18,0,-999,0,0.00
2013-5-8,49,37,22,29,25,22,100,66,36,30.31,30.21,0,-999,0,0.00
2013-5-9,50,36,19,35,25,18,97,67,37,30.34,30.22,0,-999,0,0.00
2013-5-10,56,41,23,37,30,23,100,68,38,30.25,29.92,0,-999,0,0.00
2013-5-11,50,42,34,41,38,32,100,88,64,29.93,29.56,0,-999,0,0.00
2013-5-12,45,40,35,45,40,35,100,98,85,29.57,29.39,0,-999,0,0.00
2013-5-13,38,34,29,38,34,29,100,100,99,29.40,0.00,0,-999,0,0.00
2013-5-14,34,31,27,33,30,27,100,99,92,29.60,0.00,0,-999,0,0.00
2013-5-15,42,35,29,36,28,22,100,80,51,29.73,0.00,0,-999,0,0.00
2013-5-16,48,38,31,29,21,-100,82,64,47,29.49,0.00,0,-999,0,0.00
2013-5-17,49,39,32,41,32,-100,100,81,55,29.45,29.30,0,-999,0,0.00
2013-5-18,36,32,27,34,28,15,100,86,58,30.08,29.33,0,-999,0,0.00
2013-5-19,41,32,23,17,13,9,64,46,31,30.59,30.08,0,-999,0,0.00
2013-5-20,51,34,16,21,15,12,88,51,25,30.66,30.45,0,-999,0,0.00
2013-5-21,56,39,19,25,19,16,92,51,24,30.50,30.16,0,-999,0,0.00
2013-5-22,59,42,20,27,23,17,96,53,27,30.20,29.98,0,-999,0,0.00
2013-5-23,59,45,29,35,31,23,88,60,40,30.06,29.99,0,-999,0,0.00
2013-5-24,67,49,27,36,32,26,100,57,27,30.05,29.87,0,-999,0,0.00
2013-5-25,67,49,27,36,30,25,100,55,23,29.97,29.81,0,-999,0,0.00
2013-5-26,65,48,29,44,34,25,89,61,38,29.86,29.80,0,-999,0,0.00
2013-5-27,74,55,32,46,38,32,100,60,25,29.88,29.67,0,-999,0,0.00
2013-5-28,78,57,28,42,36,27,100,53,22,29.75,29.54,0,-999,0,0.00
2013-5-29,78,57,31,46,38,29,95,54,23,29.66,29.57,0,-999,0,0.00
2013-5-30,78,59,34,47,39,32,100,53,22,29.85,29.65,0,-999,0,0.00
2013-5-31,77,58,33,45,39,32,97,55,21,29.94,29.82,0,-999,0,0.00
2013-6-1,77,57,34,48,41,34,99,61,25,29.97,29.90,0,-999,0,0.00
2013-6-2,60,50,36,45,42,35,98,76,53,30.04,29.95,0,-999,0,0.00
2013-6-3,57,48,38,42,38,33,100,72,47,29.99,29.68,0,-999,0,0.00
2013-6-4,60,50,40,40,34,27,95,60,30,29.73,29.58,0,-999,0,0.00
2013-6-5,58,46,37,43,36,28,100,70,38,29.91,29.73,0,-999,0,0.00
2013-6-6,67,49,26,36,31,25,100,57,28,29.92,0.00,0,-999,0,0.00
2013-6-7,71,54,40,52,39,-100,99,61,25,29.81,0.00,0,-999,0,0.00
2013-6-8,71,54,31,48,40,31,100,65,29,30.03,29.81,0,-999,0,0.00
2013-6-9,73,56,31,46,39,31,100,59,29,30.14,30.02,0,-999,0,0.00
2013-6-10,71,58,41,48,42,35,100,62,28,30.14,30.02,0,-999,0,0.00
2013-6-11,68,57,45,46,39,30,83,54,26,30.09,29.93,0,-999,0,0.00
2013-6-12,69,54,31,41,33,26,100,50,20,30.04,29.91,0,-999,0,0.00
2013-6-13,70,57,38,45,36,31,92,51,27,29.99,29.94,0,-999,0,0.00
2013-6-14,76,61,40,42,39,35,90,48,26,30.12,29.98,0,-999,0,0.00
2013-6-15,81,63,33,47,39,32,100,50,19,30.24,30.03,0,-999,0,0.00
2013-6-16,87,70,39,51,43,37,95,45,22,30.17,29.95,0,-999,0,0.00
2013-6-17,87,72,44,55,45,34,95,44,19,30.04,29.82,0,-999,0,0.00
2013-6-18,80,67,51,44,40,36,69,38,22,29.88,29.69,0,-999,0,0.00
2013-6-19,76,61,35,45,39,33,100,50,27,29.88,29.81,0,-999,0,0.00
2013-6-20,78,50,32,44,38,30,97,68,28,29.93,29.82,0,-999,0,0.00
2013-6-21,75,72,70,46,39,32,42,31,24,29.87,29.84,0,-999,0,0.00
2013-6-22,73,66,44,44,34,22,95,33,15,29.87,29.65,0,-999,0,0.00
2013-6-23,74,67,37,45,41,32,84,41,29,29.69,29.50,0,-999,0,0.00
2013-6-24,82,72,46,49,44,39,88,41,23,29.56,29.45,0,-999,0,0.00
2013-6-25,88,78,49,52,49,44,95,38,22,29.50,29.41,0,-999,0,0.00
2013-6-26,88,76,52,55,51,49,91,44,28,29.66,29.46,0,-999,0,0.00
2013-6-27,85,69,53,57,53,49,93,60,37,29.83,29.65,0,-999,0,0.00
2013-6-28,64,58,53,57,54,51,98,89,69,30.01,29.83,0,-999,0,0.00
2013-6-29,70,61,52,59,55,52,100,84,64,29.97,29.86,0,-999,0,0.00
2013-6-30,76,64,42,56,48,40,100,61,27,29.93,29.71,0,-999,0,0.00
2013-7-1,66,56,47,46,42,39,80,60,41,29.72,29.55,0,-999,0,0.00
2013-7-2,59,53,45,42,39,36,81,60,42,29.79,29.55,0,-999,0,0.00
2013-7-3,67,53,41,45,40,37,95,63,36,29.93,29.78,0,-999,0,0.00
2013-7-4,64,57,46,43,38,36,87,50,38,29.97,29.92,0,-999,0,0.00
2013-7-5,61,52,44,47,44,37,100,76,58,30.02,29.95,0,-999,0,0.00
2013-7-6,64,54,38,49,45,38,100,74,48,29.99,29.77,0,-999,0,0.00
2013-7-7,63,54,46,51,46,43,100,76,48,29.77,29.54,0,-999,0,0.00
2013-7-8,59,51,45,47,45,43,100,82,55,29.75,29.55,0,-999,0,0.00
2013-7-9,61,51,43,54,48,43,100,91,56,29.91,29.75,0,-999,0,0.00
2013-7-10,62,53,39,54,48,39,100,86,59,29.96,29.90,0,-999,0,0.00
2013-7-11,69,54,41,54,33,-100,100,82,46,29.96,29.85,0,-999,0,0.00
2013-7-12,76,60,42,49,45,39,100,62,27,29.93,29.79,0,-999,0,0.00
2013-7-13,79,72,56,49,38,-100,72,35,23,29.97,29.89,0,-999,0,0.00
2013-7-14,80,68,42,55,51,42,100,58,35,30.11,30.02,0,-999,0,0.00
2013-7-15,79,61,46,56,51,46,100,74,42,30.15,29.99,0,-999,0,0.00
2013-7-16,77,62,54,53,51,48,84,69,38,30.04,29.90,0,-999,0,0.00
2013-7-17,70,62,56,54,53,51,86,71,55,29.98,29.91,0,-999,0,0.00
2013-7-18,76,59,51,56,52,50,96,81,40,30.04,29.92,0,-999,0,0.00
2013-7-19,69,60,54,63,56,50,97,87,60,30.03,29.97,0,-999,0,0.00
2013-7-20,65,56,45,58,51,45,100,84,55,30.03,29.92,0,-999,0,0.00
2013-7-21,70,57,37,49,44,37,100,67,41,30.04,29.90,0,-999,0,0.00
2013-10-13,39,39,39,33,33,33,80,80,80,29.54,29.54,0,-999,0,0.00
2013-10-17,49,49,49,36,36,36,58,58,58,29.95,29.95,0,-999,0,0.00
2013-10-18,49,49,49,30,30,30,46,46,46,29.74,29.74,0,-999,0,0.00
2013-10-19,46,46,46,26,26,26,45,45,45,29.50,29.50,0,-999,0,0.00
2013-10-20,43,43,43,26,26,26,51,51,51,29.86,29.86,0,-999,0,0.00
2013-10-21,44,40,28,32,30,27,99,70,62,30.04,29.96,0,-999,0,0.00
2013-10-23,34,34,34,25,25,25,68,68,68,29.74,29.74,0,-999,0,0.00
2013-10-24,28,28,28,26,26,26,90,90,90,29.92,29.92,0,-999,0,0.00
2013-10-25,40,38,36,34,32,31,82,81,80,29.90,29.80,0,-999,0,0.00
2013-10-26,37,33,29,32,30,29,100,92,84,30.48,30.21,0,-999,0,0.00
2013-10-27,39,32,25,37,31,25,100,96,93,30.37,30.04,0,-999,0,0.00
2013-10-28,43,37,34,43,37,34,100,100,100,29.32,29.27,0,-999,0,0.00
2013-10-29,43,43,43,30,30,30,59,59,59,29.54,29.54,0,-999,0,0.00